GAP2921 RPLL-RPUN

Flight info

Callsign GAP2921
Flight time 0h 37m
Altitude 19000
Route HARBO1 HARBO DCT TIMON W15 RAGAY RAGAY4P
Aircraft DH8D/M-SDE2E3FGRY/H

Departure

Time 2026-04-17 05:48
Airport Ninoy Aquino International Airport (RPLL)

Arrival

Time 2026-04-17 06:25
Airport Naga Airport (RPUN)
Time Latitude Longitude Altitude Speed Heading
2026-04-17 05:33 14.50663 121.01070 83 ft 0 kts 330°
2026-04-17 05:40 14.50663 121.01069 83 ft 0 kts 330°
2026-04-17 05:41 14.50653 121.01076 83 ft 2 kts 330°
2026-04-17 05:41 14.50639 121.01083 83 ft 2 kts 330°
2026-04-17 05:41 14.50627 121.01086 83 ft 1 kts 21°
2026-04-17 05:42 14.50617 121.01077 83 ft 2 kts 64°
2026-04-17 05:42 14.50612 121.01067 83 ft 0 kts 60°
2026-04-17 05:42 14.50612 121.01066 83 ft 0 kts 60°
2026-04-17 05:44 14.50635 121.01107 83 ft 18 kts 61°
2026-04-17 05:45 14.50684 121.01196 83 ft 13 kts 60°
2026-04-17 05:45 14.50727 121.01274 83 ft 11 kts 60°
2026-04-17 05:45 14.50767 121.01344 83 ft 10 kts 60°
2026-04-17 05:45 14.50801 121.01406 83 ft 9 kts 62°
2026-04-17 05:46 14.50843 121.01483 83 ft 13 kts 61°
2026-04-17 05:46 14.50890 121.01566 83 ft 12 kts 60°
2026-04-17 05:46 14.50932 121.01642 83 ft 11 kts 61°
2026-04-17 05:46 14.50969 121.01711 83 ft 10 kts 60°
2026-04-17 05:47 14.51004 121.01775 83 ft 9 kts 60°
2026-04-17 05:47 14.51044 121.01771 83 ft 13 kts 314°
2026-04-17 05:47 14.51336 121.01467 83 ft 108 kts 314°
2026-04-17 05:47 14.52021 121.00776 268 ft 151 kts 315°
2026-04-17 05:48 14.52797 121.00045 944 ft 155 kts 317°
2026-04-17 05:48 14.53593 120.99270 1582 ft 163 kts 311°
2026-04-17 05:48 14.54431 120.98383 2075 ft 184 kts 312°
2026-04-17 05:48 14.55346 120.97421 2652 ft 196 kts 313°
2026-04-17 05:49 14.56364 120.96355 3064 ft 217 kts 313°
2026-04-17 05:49 14.57550 120.95380 3665 ft 225 kts 334°
2026-04-17 05:49 14.59087 120.95161 4332 ft 227 kts
2026-04-17 05:49 14.60462 120.95838 4999 ft 228 kts 42°
2026-04-17 05:50 14.61373 120.97173 5744 ft 228 kts 61°
2026-04-17 05:50 14.62123 120.98591 6469 ft 229 kts 60°
2026-04-17 05:50 14.62730 121.00082 7195 ft 230 kts 79°
2026-04-17 05:50 14.62543 121.01710 7836 ft 236 kts 111°
2026-04-17 05:51 14.61628 121.03085 8493 ft 239 kts 127°
2026-04-17 05:51 14.60548 121.04398 9119 ft 242 kts 127°
2026-04-17 05:51 14.59447 121.05724 9740 ft 244 kts 127°
2026-04-17 05:51 14.58335 121.07054 10339 ft 248 kts 127°
2026-04-17 05:52 14.57208 121.08399 10772 ft 258 kts 128°
2026-04-17 05:52 14.56019 121.09830 10801 ft 280 kts 128°
2026-04-17 05:52 14.54692 121.11430 10872 ft 299 kts 128°
2026-04-17 05:52 14.53315 121.13099 10963 ft 313 kts 128°
2026-04-17 05:53 14.51904 121.14816 11186 ft 319 kts 127°
2026-04-17 05:53 14.50458 121.16577 11474 ft 321 kts 128°
2026-04-17 05:53 14.48997 121.18351 11720 ft 324 kts 128°
2026-04-17 05:53 14.47549 121.20110 11973 ft 324 kts 127°
2026-04-17 05:54 14.46086 121.21892 12230 ft 327 kts 128°
2026-04-17 05:54 14.44643 121.23653 12493 ft 329 kts 128°
2026-04-17 05:54 14.43159 121.25462 12771 ft 331 kts 128°
2026-04-17 05:54 14.41669 121.27298 13095 ft 331 kts 126°
2026-04-17 05:55 14.40428 121.29249 13413 ft 332 kts 118°
2026-04-17 05:55 14.39284 121.31292 13709 ft 333 kts 117°
2026-04-17 05:55 14.38129 121.33378 13957 ft 334 kts 117°
2026-04-17 05:55 14.36978 121.35474 14246 ft 336 kts 117°
2026-04-17 05:56 14.35833 121.37570 14543 ft 339 kts 117°
2026-04-17 05:56 14.34664 121.39714 14922 ft 340 kts 116°
2026-04-17 05:56 14.33511 121.41832 15276 ft 342 kts 116°
2026-04-17 05:56 14.32346 121.43977 15598 ft 343 kts 116°
2026-04-17 05:57 14.31187 121.46113 15909 ft 346 kts 116°
2026-04-17 05:57 14.29998 121.48305 16264 ft 347 kts 116°
2026-04-17 05:57 14.28826 121.50468 16543 ft 350 kts 116°
2026-04-17 05:57 14.27636 121.52666 16917 ft 352 kts 116°
2026-04-17 05:58 14.26439 121.54874 17261 ft 354 kts 116°
2026-04-17 05:58 14.25240 121.57084 17610 ft 355 kts 116°
2026-04-17 05:58 14.24051 121.59277 17931 ft 355 kts 116°
2026-04-17 05:59 14.21617 121.63768 18502 ft 359 kts 116°
2026-04-17 05:59 14.20414 121.65985 18820 ft 360 kts 116°
2026-04-17 05:59 14.19168 121.68284 18888 ft 365 kts 116°
2026-04-17 05:59 14.17917 121.70590 18906 ft 373 kts 116°
2026-04-17 06:00 14.16666 121.72900 18907 ft 365 kts 116°
2026-04-17 06:00 14.15461 121.75124 18892 ft 354 kts 116°
2026-04-17 06:00 14.14272 121.77316 18898 ft 348 kts 116°
2026-04-17 06:00 14.13104 121.79469 18907 ft 343 kts 116°
2026-04-17 06:01 14.11937 121.81619 18902 ft 340 kts 116°
2026-04-17 06:01 14.10782 121.83749 18902 ft 338 kts 116°
2026-04-17 06:01 14.09641 121.85850 18902 ft 339 kts 116°
2026-04-17 06:01 14.08496 121.87959 18899 ft 338 kts 116°
2026-04-17 06:02 14.07352 121.90064 18898 ft 338 kts 116°
2026-04-17 06:02 14.06201 121.92178 18887 ft 335 kts 116°
2026-04-17 06:02 14.05061 121.94278 18894 ft 336 kts 116°
2026-04-17 06:02 14.03962 121.96413 18903 ft 336 kts 114°
2026-04-17 06:03 14.02893 121.98576 18902 ft 337 kts 114°
2026-04-17 06:03 14.01825 122.00731 18903 ft 339 kts 114°
2026-04-17 06:03 14.00752 122.02895 18904 ft 339 kts 114°
2026-04-17 06:03 13.99677 122.05059 18901 ft 340 kts 114°
2026-04-17 06:04 13.98611 122.07201 18908 ft 340 kts 114°
2026-04-17 06:04 13.97508 122.09413 18906 ft 340 kts 114°
2026-04-17 06:04 13.96426 122.11581 18906 ft 341 kts 114°
2026-04-17 06:04 13.95342 122.13751 18904 ft 341 kts 114°
2026-04-17 06:05 13.94252 122.15932 18906 ft 342 kts 114°
2026-04-17 06:05 13.93161 122.18115 18904 ft 343 kts 114°
2026-04-17 06:05 13.92068 122.20298 18911 ft 342 kts 114°
2026-04-17 06:05 13.90966 122.22500 18914 ft 342 kts 114°
2026-04-17 06:06 13.89868 122.24691 18914 ft 342 kts 114°
2026-04-17 06:06 13.88777 122.26870 18918 ft 342 kts 114°
2026-04-17 06:06 13.87688 122.29043 18909 ft 343 kts 114°
2026-04-17 06:06 13.86578 122.31261 18381 ft 354 kts 114°
2026-04-17 06:07 13.85505 122.33404 17886 ft 350 kts 114°
2026-04-17 06:07 13.84388 122.35635 17465 ft 344 kts 114°
2026-04-17 06:07 13.83298 122.37808 17092 ft 338 kts 114°
2026-04-17 06:07 13.82241 122.39916 16737 ft 333 kts 114°
2026-04-17 06:08 13.81172 122.42048 16385 ft 329 kts 114°
2026-04-17 06:08 13.80128 122.44127 16046 ft 323 kts 114°
2026-04-17 06:08 13.79144 122.46088 15723 ft 318 kts 114°
2026-04-17 06:08 13.78117 122.48134 15383 ft 314 kts 114°
2026-04-17 06:09 13.77126 122.50108 15057 ft 312 kts 114°
2026-04-17 06:09 13.76143 122.52065 14739 ft 308 kts 114°
2026-04-17 06:09 13.75165 122.54010 14419 ft 305 kts 114°
2026-04-17 06:09 13.74191 122.55949 14106 ft 304 kts 114°
2026-04-17 06:10 13.73239 122.57879 13776 ft 302 kts 111°
2026-04-17 06:10 13.72696 122.59898 13480 ft 293 kts 96°
2026-04-17 06:10 13.72409 122.61986 13173 ft 292 kts 95°
2026-04-17 06:10 13.72136 122.64035 12868 ft 288 kts 95°
2026-04-17 06:11 13.71865 122.66061 12573 ft 285 kts 95°
2026-04-17 06:11 13.71595 122.68072 12279 ft 285 kts 96°
2026-04-17 06:11 13.71322 122.70077 12041 ft 282 kts 96°
2026-04-17 06:11 13.71051 122.72057 11767 ft 278 kts 96°
2026-04-17 06:12 13.70783 122.74017 11489 ft 278 kts 96°
2026-04-17 06:12 13.70513 122.75974 11210 ft 276 kts 96°
2026-04-17 06:12 13.70245 122.77914 10925 ft 274 kts 96°
2026-04-17 06:12 13.69979 122.79837 10647 ft 274 kts 96°
2026-04-17 06:13 13.69708 122.81790 10364 ft 275 kts 96°
2026-04-17 06:13 13.69436 122.83746 10077 ft 277 kts 96°
2026-04-17 06:13 13.69165 122.85696 9796 ft 277 kts 96°
2026-04-17 06:13 13.68891 122.87664 9508 ft 278 kts 96°
2026-04-17 06:14 13.68616 122.89633 9211 ft 278 kts 96°
2026-04-17 06:14 13.68341 122.91601 8921 ft 278 kts 96°
2026-04-17 06:14 13.68068 122.93563 8636 ft 278 kts 96°
2026-04-17 06:14 13.67793 122.95525 8348 ft 276 kts 96°
2026-04-17 06:15 13.67520 122.97477 8064 ft 275 kts 97°
2026-04-17 06:15 13.67249 122.99412 7776 ft 274 kts 96°
2026-04-17 06:15 13.66981 123.01326 7488 ft 266 kts 96°
2026-04-17 06:15 13.66727 123.03155 7216 ft 254 kts 96°
2026-04-17 06:16 13.66482 123.04919 6960 ft 244 kts 96°
2026-04-17 06:16 13.66247 123.06610 6712 ft 234 kts 96°
2026-04-17 06:16 13.66016 123.08229 6448 ft 224 kts 98°
2026-04-17 06:16 13.65380 123.09674 5948 ft 224 kts 134°
2026-04-17 06:17 13.64023 123.10300 5690 ft 209 kts 179°
2026-04-17 06:17 13.62598 123.09995 5516 ft 214 kts 199°
2026-04-17 06:17 13.61179 123.09484 5296 ft 219 kts 200°
2026-04-17 06:17 13.59733 123.08933 5071 ft 223 kts 201°
2026-04-17 06:18 13.58266 123.08354 4835 ft 227 kts 201°
2026-04-17 06:18 13.56776 123.07755 4594 ft 229 kts 201°
2026-04-17 06:18 13.55285 123.07147 4354 ft 232 kts 201°
2026-04-17 06:18 13.53787 123.06531 4106 ft 229 kts 201°
2026-04-17 06:19 13.52257 123.06190 3839 ft 220 kts 173°
2026-04-17 06:19 13.50942 123.06818 3704 ft 205 kts 137°
2026-04-17 06:19 13.49888 123.07812 3583 ft 203 kts 135°
2026-04-17 06:19 13.48867 123.08814 3466 ft 201 kts 134°
2026-04-17 06:20 13.47865 123.09814 3353 ft 198 kts 134°
2026-04-17 06:20 13.46885 123.10800 3245 ft 195 kts 133°
2026-04-17 06:20 13.45943 123.11768 3108 ft 192 kts 129°
2026-04-17 06:20 13.45479 123.12970 2954 ft 178 kts 82°
2026-04-17 06:21 13.46001 123.14049 2878 ft 171 kts 49°
2026-04-17 06:21 13.46808 123.14964 2785 ft 171 kts 46°
2026-04-17 06:21 13.47623 123.15851 2692 ft 171 kts 46°
2026-04-17 06:21 13.48458 123.16742 2602 ft 170 kts 45°
2026-04-17 06:22 13.49288 123.17616 2510 ft 170 kts 45°
2026-04-17 06:22 13.50114 123.18478 2340 ft 171 kts 45°
2026-04-17 06:22 13.50947 123.19343 2126 ft 162 kts 44°
2026-04-17 06:22 13.51693 123.20110 1937 ft 144 kts 44°
2026-04-17 06:23 13.52367 123.20806 1712 ft 128 kts 43°
2026-04-17 06:23 13.52977 123.21438 1561 ft 123 kts 44°
2026-04-17 06:23 13.53579 123.22070 1388 ft 124 kts 44°
2026-04-17 06:23 13.54196 123.22710 1222 ft 125 kts 44°
2026-04-17 06:24 13.54809 123.23343 1052 ft 125 kts 44°
2026-04-17 06:24 13.55413 123.23961 874 ft 117 kts 44°
2026-04-17 06:24 13.55982 123.24546 721 ft 115 kts 43°
2026-04-17 06:24 13.56559 123.25122 554 ft 114 kts 41°
2026-04-17 06:25 13.57139 123.25682 384 ft 113 kts 43°
2026-04-17 06:25 13.57696 123.26243 229 ft 112 kts 42°
2026-04-17 06:25 13.58238 123.26798 143 ft 102 kts 43°
2026-04-17 06:25 13.58612 123.27174 164 ft 40 kts 44°
2026-04-17 06:26 13.58716 123.27286 169 ft 10 kts 69°
2026-04-17 06:26 13.58730 123.27289 170 ft 8 kts 241°
2026-04-17 06:26 13.58666 123.27228 167 ft 14 kts 225°
2026-04-17 06:26 13.58593 123.27154 163 ft 16 kts 225°
2026-04-17 06:27 13.58508 123.27065 160 ft 17 kts 229°
2026-04-17 06:27 13.58496 123.26981 158 ft 5 kts 252°
2026-04-17 06:27 13.58463 123.26945 157 ft 9 kts 224°
2026-04-17 06:27 13.58468 123.26926 156 ft 2 kts
2026-04-17 06:28 13.58479 123.26929 157 ft 5 kts 15°
2026-04-17 06:28 13.58492 123.26932 157 ft 0 kts 16°